Location: Albuquerque Trailhead
(34.7934°N, 106.3736°W)
Time: 11:27:06
(UTC+00:00)

Exosat Rocket - Pass Details

Date: 30 October 2021
Orbit: 759 x 2516 km, 72.3° (Epoch: 08 December)

Event Time Altitude Azimuth Distance (km) Brightness Sun altitude
Exits shadow 10:27:01 50° 181° (S) 2,096 5.5 -36.9°
Maximum altitude 10:30:18 79° 105° (ESE) 1,890 5.3 -36.2°
Drops below altitude 10° 10:43:13 10° 22° (NNE) 4,927 7.9 -33.6°
Sets 10:47:12 0° 21° (NNE) 6,072 8.4 -32.8°
